Weather in Holguin

Cuba     20°53′19″N   76°15′25″W
temp.,
°C
wind,
m/s
gust,
m/s
humid.,
%
clouds,
%
prec.,
mm/h
press.,
hPa
HPBL,
m
14 may, fri
fri1423:00+25ne37909 0.0 1017268
02:00+24ene278978 0.0 1015262
05:00+23ene25934 0.0 1015139
08:00+26e47750 0.0 1016549
11:00+32ene45441 0.0 10161352
14:00+32ne75450 0.0 10141542
17:00+29ne76530 0.0 1014808
20:00+25ne59770 0.0 1015443
15 may, sat
sat1523:00+24ne38851 0.0 1017257
02:00+23ne22915 0.0 101554
05:00+23ene23945 0.0 101550
08:00+26e368012 0.0 1016561
11:00+31ne555276 0.1 10161573
14:00+31ne75499 0.1 10151561
17:00+29ne77535 0.0 10141027
20:00+25ene58771 0.0 1016567
16 may, sun
sun1623:00+24ne378618 0.0 1016252
02:00+23ne25925 0.1 1015139
05:00+23ene27918 0.1 1014184
08:00+26ene47777 0.3 1016717
11:00+31ene564849 0.1 10171775
14:00+30ne775646 0.4 10151136
17:00+29ne886158 0.0 1014994
20:00+25ene697987 0.1 1016619
17 may, mon
mon1723:00+24ene4985100 0.6 1017459
02:00+23ene399099 1.6 1015345
05:00+22ene289479 3.0 1015248
08:00+25ene488398 3.2 1016558
11:00+30ene555685 0.1 10161599
14:00+31ne655395 0.8 10151485
17:00+28ne8967100 0.2 1013827
20:00+24ese3685100 3.0 1016224
18 may, tue
tue1823:00+22sse1287100 2.1 1017108
02:00+22e118171 2.1 101522
05:00+22e238391 0.3 101491
08:00+24ese258291 0.4 1015240
11:00+29ese3353100 0.1 10161230
14:00+31ne4348100 0.4 10141574
17:00+26e4570100 2.3 1014718
20:00+22se4794100 13.4 1016389